DW7554 Weather Reports


time (UTC)temp
F
wind
direction
speed
knots
gust
knots
rain 1hr
in
rain 24hr
in
rain mn
in
humidity
%
barometer
mb
20260504231553 49 349 0.0 11.3 0.00 0.00 0.00 77 1008.8
20260504230049 49 348 0.0 11.3 0.00 0.00 0.00 76 1008.8
20260504224545 49 22 0.0 11.3 0.00 0.00 0.00 76 1008.9
20260504223058 50 22 0.0 11.3 0.00 0.00 0.00 74 1009.3
20260504221556 49 83 0.0 11.3 0.00 0.00 0.00 76 1009.3
20260504220042 50 276 0.0 11.3 0.00 0.00 0.00 74 1009.4
20260504214539 50 276 0.0 11.3 0.00 0.00 0.00 73 1009.3
20260504213056 51 276 0.0 11.3 0.00 0.00 0.00 70 1009.2
20260504211541 53 277 0.0 11.3 0.00 0.00 0.00 68 1009.3
20260504210037 53 242 0.0 11.3 0.00 0.00 0.00 67 1009.2
20260504204536 54 262 0.0 11.3 0.00 0.00 0.00 65 1009.2
20260504203046 55 264 1.7 11.3 0.00 0.00 0.00 63 1009.2
20260504201535 55 264 3.5 11.3 0.00 0.00 0.00 62 1009.1
20260504200035 55 281 4.3 11.3 0.00 0.00 0.00 62 1009.0
20260504194541 57 248 4.3 11.3 0.00 0.00 0.00 58 1009.0
20260504193034 56 281 5.2 11.3 0.00 0.00 0.00 59 1009.1
20260504191538 57 268 4.3 11.3 0.00 0.00 0.00 58 1009.0
20260504190033 57 264 5.2 11.3 0.00 0.00 0.00 57 1009.1
20260504184531 57 248 2.6 11.3 0.00 0.00 0.00 56 1008.9
20260504183031 58 259 3.5 11.3 0.00 0.00 0.00 55 1008.9
20260504181530 58 262 3.5 11.3 0.00 0.00 0.00 54 1008.7
20260504180031 59 279 4.3 11.3 0.00 0.00 0.00 53 1008.7
20260504174529 59 298 3.5 11.3 0.00 0.00 0.00 52 1008.6
20260504173033 59 291 4.3 11.3 0.00 0.00 0.00 51 1008.5
20260504171533 60 274 5.2 11.3 0.00 0.00 0.00 50 1008.6
20260504081537 61 287 4.3 12.2 0.00 0.00 0.00 49 1010.3
20260504050001 43 77 0.9 0.0 0.00 0.00 0.00 73 1010.5
20260504044559 0 0.0 0.0 0.00 0.00 0.00 1010.5
20260504043108 0 0.0 0.0 0.00 0.00 0.00 1010.5
20260504041551 0 0.0 0.0 0.00 0.00 0.00 1010.6
20260504040106 0 0.0 0.0 0.00 0.00 0.00 1010.7
20260504034541 0 0.0 0.0 0.00 0.00 0.00 1011.0
20260504033040 41 72 1.7 17.4 0.00 0.00 0.00 76 1010.9
20260504031538 41 66 1.7 17.4 0.00 0.00 0.00 76 1011.1
20260504030037 41 77 1.7 17.4 0.00 0.00 0.00 76 1011.1
20260504024533 42 79 0.9 17.4 0.00 0.00 0.00 75 1011.2
20260504023033 43 77 0.0 17.4 0.00 0.00 0.00 73 1011.2
20260504021530 42 75 0.9 17.4 0.00 0.00 0.00 74 1011.3
20260504020032 43 72 1.7 17.4 0.00 0.00 0.00 73 1011.2
20260504014527 43 86 0.9 17.4 0.00 0.00 0.00 72 1011.0
20260504013027 43 77 0.9 17.4 0.00 0.00 0.00 73 1011.2
20260504011525 44 75 0.9 17.4 0.00 0.00 0.00 70 1011.1
20260504010024 44 77 0.9 17.4 0.00 0.00 0.00 69 1011.1
20260504004537 45 71 0.9 17.4 0.00 0.00 0.00 67 1011.0
20260504003021 44 60 1.7 17.4 0.00 0.00 0.00 69 1011.2
20260504001521 44 68 0.9 17.4 0.00 0.00 0.00 67 1011.3
20260504000021 44 64 1.7 17.4 0.00 0.00 0.00 67 1011.3
20260503234519 44 73 0.9 17.4 0.00 0.00 0.00 66 1011.3
20260503233021 44 59 2.6 17.4 0.00 0.00 0.00 66 1011.5